"startDT [UTC]","vpos","CH4 [ppm]","stdev(CH4) [ppm]","CO2 [ppm]","stdev(CO2) [ppm]","H2O_reported [%]","stdev(H2O_reported)","CavityPressure [torr]","CavityTemp [C]","OutletValve","CH4_dry [ppm]","CO2_dry [ppm]","DasTemp [C]","EtalonTemp [C]","WarmBoxTemp [C]","MPVPosition","T_ECpre [C]","T_EC1 [C]","T_EC2 [C]","p_inlet [hPa]","p_in [hPa]","p_out [hPa]","T_inlet [C]","RH_inlet [%]","dwpt_inlet [C]","T_vent [C]","RH_vent [%]","dwpt_vent [C]","flow_vent [l min-1]","flow_inlet [l min-1]","dwpt_sample [C]","T_room [C]"
2016-12-20 00:00:00,0.0,1.97669,0.00073,412.493,0.101,0.0931,0.0020,140.000,45.000,31579.05177,1.97854,412.959,34.313,45.072,45.000,0.00,0.06,-272.89,-272.92,-7,523,-948,19.8,3.2,-25.9,20.1,3.2,-25.5,0.48,2.03,-20.4,26.3
2016-12-20 00:01:00,0.0,1.97647,0.00078,412.511,0.136,0.0935,0.0019,139.999,45.000,31579.51740,1.97825,412.969,34.313,45.072,45.000,0.00,0.06,-272.88,-272.92,-6,524,-948,19.8,3.2,-25.8,20.1,3.3,-25.5,0.48,1.86,-20.4,26.3
2016-12-20 00:02:00,0.0,1.97677,0.00050,412.532,0.052,0.0943,0.0021,140.000,45.000,31578.40897,1.97860,413.000,34.314,45.072,45.000,0.00,0.06,-272.87,-272.91,-7,523,-948,19.8,3.3,-25.7,20.1,3.3,-25.4,0.48,1.94,-20.4,26.3
2016-12-20 00:03:00,0.0,1.97569,0.00075,412.325,0.115,0.0950,0.0015,140.001,45.000,31579.44710,1.97757,412.801,34.312,45.072,45.000,0.00,0.06,-272.89,-272.91,-6,524,-948,19.8,3.3,-25.7,20.1,3.3,-25.3,0.48,1.94,-20.4,26.3
2016-12-20 00:04:00,0.0,1.97713,0.00052,412.565,0.075,0.0939,0.0016,139.997,45.000,31578.70616,1.97890,413.025,34.304,45.072,45.000,0.00,0.06,-272.88,-272.92,-6,523,-948,19.8,3.3,-25.7,20.1,3.3,-25.4,0.48,1.85,-20.4,26.3
2016-12-20 00:05:00,0.0,1.97747,0.00039,412.642,0.049,0.0941,0.0016,139.998,45.000,31578.72029,1.97934,413.113,34.284,45.072,45.000,0.00,0.06,-272.89,-272.91,-6,524,-948,19.8,3.3,-25.8,20.1,3.3,-25.4,0.48,2.04,-20.4,26.3
2016-12-20 00:06:00,0.0,1.97651,0.00055,412.537,0.076,0.0940,0.0016,139.999,45.000,31579.27492,1.97832,413.002,34.281,45.072,45.000,0.00,0.06,-272.88,-272.92,-6,523,-948,19.8,3.2,-25.8,20.1,3.3,-25.4,0.48,1.77,-20.4,26.3
2016-12-20 00:07:00,0.0,1.97753,0.00036,412.664,0.070,0.0920,0.0021,140.002,45.000,31580.04477,1.97934,413.124,34.295,45.072,45.000,0.00,0.06,-272.88,-272.91,-6,524,-948,19.8,3.2,-26.0,20.1,3.2,-25.5,0.48,2.09,-20.4,26.3
2016-12-20 00:08:00,0.0,1.97661,0.00047,412.529,0.062,0.0924,0.0019,140.000,45.000,31579.31099,1.97842,412.987,34.313,45.072,45.000,0.00,0.06,-272.88,-272.91,-6,523,-948,19.7,3.2,-25.9,20.1,3.2,-25.6,0.48,1.73,-20.4,26.3
2016-12-20 00:09:00,0.0,1.97714,0.00064,412.602,0.087,0.0926,0.0013,139.998,45.000,31578.37228,1.97891,413.060,34.321,45.072,45.000,0.00,0.06,-272.88,-272.91,-7,524,-948,19.7,3.2,-26.0,20.1,3.2,-25.6,0.48,2.11,-20.4,26.3
2016-12-20 00:10:00,0.0,1.97733,0.00046,412.630,0.049,0.0938,0.0016,140.001,45.000,31578.35043,1.97917,413.097,34.358,45.072,45.000,0.00,0.06,-272.88,-272.92,-6,523,-948,19.7,3.2,-26.0,20.1,3.2,-25.6,0.48,1.75,-20.4,26.3
2016-12-20 00:11:00,0.0,1.97662,0.00052,412.558,0.074,0.0926,0.0011,140.000,45.000,31579.05683,1.97845,413.021,34.360,45.071,44.999,0.00,0.06,-272.88,-272.93,-7,524,-948,19.7,3.2,-26.0,20.1,3.2,-25.6,0.48,2.06,-20.4,26.3
2016-12-20 00:12:00,0.0,1.97641,0.00056,412.523,0.051,0.0933,0.0014,139.997,45.000,31579.87869,1.97822,412.985,34.368,45.071,44.999,0.00,0.06,-272.87,-272.92,-6,523,-948,19.7,3.2,-25.9,20.1,3.3,-25.5,0.48,1.81,-20.4,26.3
2016-12-20 00:13:00,0.0,1.97692,0.00030,412.570,0.059,0.0944,0.0020,140.001,45.000,31580.09659,1.97876,413.041,34.353,45.071,45.000,0.00,0.06,-272.88,-272.92,-7,524,-948,19.7,3.2,-25.9,20.1,3.3,-25.5,0.48,1.99,-20.4,26.3
2016-12-20 00:14:00,0.0,1.97648,0.00087,412.501,0.164,0.0934,0.0014,140.001,45.000,31579.84540,1.97828,412.961,34.348,45.071,45.000,0.00,0.06,-272.89,-272.92,-6,523,-948,19.7,3.3,-25.8,20.1,3.3,-25.5,0.48,1.90,-20.3,26.3
2016-12-20 00:15:00,0.0,1.97757,0.00045,412.724,0.038,0.0925,0.0014,140.000,45.000,31581.06748,1.97937,413.183,34.354,45.072,45.000,0.00,0.06,-272.88,-272.92,-7,523,-948,19.7,3.2,-25.9,20.1,3.3,-25.5,0.48,1.89,-20.3,26.3
2016-12-20 00:16:00,0.0,1.97681,0.00112,412.570,0.188,0.0918,0.0017,140.002,45.000,31581.78222,1.97871,413.037,34.357,45.072,45.000,0.00,0.06,-272.89,-272.92,-6,523,-948,19.7,3.2,-26.0,20.1,3.2,-25.6,0.48,2.00,-20.3,26.3
2016-12-20 00:17:00,0.0,1.97624,0.00074,412.438,0.127,0.0921,0.0016,140.001,45.000,31578.83759,1.97794,412.886,34.320,45.072,45.000,0.00,0.06,-272.88,-272.92,-7,523,-948,19.7,3.2,-26.0,20.1,3.2,-25.7,0.48,1.80,-20.4,26.3
2016-12-20 00:18:00,0.0,1.97778,0.00036,412.733,0.039,0.0920,0.0019,139.998,45.000,31577.65656,1.97958,413.190,34.313,45.072,45.000,0.00,0.06,-272.89,-272.91,-6,523,-948,19.7,3.2,-26.0,20.1,3.2,-25.7,0.48,2.08,-20.3,26.3
2016-12-20 00:19:00,0.0,1.97681,0.00066,412.531,0.066,0.0915,0.0018,140.000,45.000,31578.87617,1.97856,412.985,34.313,45.072,45.000,0.00,0.06,-272.88,-272.91,-7,523,-948,19.7,3.2,-26.0,20.1,3.2,-25.6,0.48,1.74,-20.3,26.4
2016-12-20 00:20:00,0.0,1.97778,0.00034,412.738,0.047,0.0906,0.0014,139.999,45.000,31579.42064,1.97956,413.188,34.318,45.072,45.000,0.00,0.06,-272.89,-272.91,-5,523,-948,19.7,3.2,-26.1,20.1,3.2,-25.7,0.48,2.11,-20.3,26.4
2016-12-20 00:21:00,0.0,1.97641,0.00121,412.503,0.210,0.0914,0.0021,140.000,45.000,31579.50031,1.97821,412.961,34.347,45.072,45.000,0.00,0.06,-272.88,-272.92,-7,523,-948,19.7,3.2,-26.1,20.1,3.2,-25.8,0.48,1.74,-20.3,26.3
2016-12-20 00:22:00,0.0,1.97751,0.00044,412.674,0.061,0.0907,0.0018,139.999,45.000,31578.09980,1.97924,413.122,34.328,45.072,45.000,0.00,0.06,-272.87,-272.92,-6,523,-948,19.7,3.2,-26.1,20.1,3.2,-25.7,0.48,2.09,-20.3,26.3
2016-12-20 00:23:00,0.0,1.97720,0.00074,412.611,0.141,0.0909,0.0022,140.002,45.000,31578.28808,1.97905,413.071,34.313,45.072,45.000,0.00,0.06,-272.88,-272.91,-7,523,-948,19.7,3.2,-26.1,20.1,3.2,-25.8,0.48,1.79,-20.3,26.3
2016-12-20 00:24:00,0.0,1.97657,0.00041,412.478,0.090,0.0909,0.0017,139.998,45.000,31577.95358,1.97830,412.924,34.322,45.072,45.000,0.00,0.06,-272.89,-272.92,-6,523,-948,19.8,3.2,-26.0,20.1,3.2,-25.7,0.48,2.01,-20.3,26.3
2016-12-20 00:25:00,0.0,1.97751,0.00053,412.686,0.086,0.0912,0.0014,140.001,45.000,31577.79683,1.97926,413.136,34.321,45.072,45.000,0.00,0.06,-272.88,-272.91,-7,523,-948,19.8,3.2,-26.0,20.1,3.2,-25.7,0.48,1.87,-20.3,26.3
2016-12-20 00:26:00,0.0,1.97681,0.00067,412.490,0.085,0.0923,0.0016,139.999,45.000,31576.52673,1.97868,412.954,34.317,45.072,45.000,0.00,0.06,-272.88,-272.92,-6,524,-948,19.8,3.2,-26.0,20.1,3.2,-25.7,0.48,1.92,-20.3,26.3
2016-12-20 00:27:00,0.0,1.97690,0.00091,412.546,0.136,0.0919,0.0025,140.001,45.000,31578.50680,1.97861,412.999,34.313,45.072,45.000,0.00,0.06,-272.89,-272.92,-7,523,-948,19.7,3.2,-26.1,20.1,3.2,-25.7,0.48,1.98,-20.3,26.3
2016-12-20 00:28:00,0.0,1.97726,0.00081,412.591,0.123,0.0911,0.0015,140.001,45.000,31577.84428,1.97908,413.046,34.311,45.072,45.000,0.00,0.06,-272.87,-272.92,-6,524,-948,19.7,3.2,-26.1,20.1,3.2,-25.7,0.48,1.82,-20.3,26.3
2016-12-20 00:29:00,0.0,1.97739,0.00044,412.619,0.078,0.0922,0.0022,140.000,45.000,31577.51291,1.97914,413.073,34.313,45.072,45.000,0.00,0.06,-272.88,-272.91,-7,523,-948,19.7,3.2,-26.0,20.1,3.2,-25.6,0.48,2.06,-20.3,26.3
2016-12-20 00:30:00,0.0,1.97698,0.00052,412.564,0.079,0.0913,0.0016,140.000,45.000,31577.31244,1.97876,413.020,34.315,45.072,45.000,0.00,0.06,-272.88,-272.92,-6,524,-948,19.7,3.2,-26.1,20.1,3.2,-25.7,0.48,1.75,-20.3,26.3
2016-12-20 00:31:00,0.0,1.97635,0.00078,412.421,0.101,0.0923,0.0015,139.998,45.000,31577.21233,1.97824,412.884,34.313,45.072,45.000,0.00,0.06,-272.89,-272.92,-7,523,-948,19.7,3.2,-26.0,20.1,3.2,-25.7,0.48,2.11,-20.3,26.3
2016-12-20 00:32:00,0.0,1.97769,0.00083,412.650,0.166,0.0930,0.0017,140.001,45.000,31576.68581,1.97939,413.104,34.313,45.072,45.000,0.00,0.06,-272.87,-272.91,-6,524,-948,19.7,3.2,-26.0,20.1,3.2,-25.6,0.48,1.73,-20.3,26.3
2016-12-20 00:33:00,0.0,1.97691,0.00053,412.541,0.071,0.0920,0.0012,140.000,45.000,31577.54628,1.97874,413.000,34.339,45.072,45.000,0.00,0.06,-272.88,-272.91,-7,523,-948,19.7,3.2,-25.9,20.1,3.2,-25.6,0.48,2.10,-20.3,26.3
2016-12-20 00:34:00,0.0,1.97590,0.00110,412.322,0.185,0.0916,0.0019,139.998,45.000,31576.43058,1.97774,412.781,34.368,45.072,45.000,0.00,0.06,-272.88,-272.91,-6,523,-948,19.7,3.2,-26.0,20.1,3.2,-25.6,0.48,1.77,-20.3,26.3
2016-12-20 00:35:00,0.0,1.97787,0.00072,412.693,0.125,0.0924,0.0013,140.000,45.000,31576.38928,1.97958,413.145,34.374,45.072,45.000,0.00,0.06,-272.88,-272.92,-7,523,-948,19.7,3.2,-26.0,20.1,3.2,-25.6,0.48,2.04,-20.3,26.3
2016-12-20 00:36:00,0.0,1.97705,0.00093,412.588,0.170,0.0927,0.0019,139.999,45.000,31576.65427,1.97890,413.051,34.374,45.071,45.000,0.00,0.06,-272.88,-272.91,-6,524,-948,19.7,3.2,-26.0,20.1,3.2,-25.6,0.48,1.84,-20.3,26.3
2016-12-20 00:37:00,0.0,1.97754,0.00090,412.649,0.119,0.0905,0.0022,139.997,45.000,31574.46032,1.97938,413.104,34.375,45.071,45.000,0.00,0.06,-272.87,-272.92,-6,523,-948,19.7,3.2,-26.1,20.1,3.2,-25.7,0.48,1.95,-20.3,26.3
2016-12-20 00:38:00,0.0,1.97677,0.00132,412.520,0.230,0.0916,0.0019,139.998,45.000,31575.69021,1.97844,412.967,34.364,45.071,45.000,0.00,0.06,-272.88,-272.92,-7,524,-948,19.7,3.2,-26.1,20.1,3.2,-25.8,0.48,1.94,-20.3,26.3
2016-12-20 00:39:00,0.0,1.97734,0.00043,412.623,0.043,0.0921,0.0016,140.002,45.000,31578.49279,1.97914,413.083,34.315,45.072,45.000,0.00,0.06,-272.87,-272.91,-6,523,-948,19.7,3.2,-26.1,20.1,3.2,-25.7,0.48,1.85,-20.3,26.3
2016-12-20 00:40:00,0.0,1.97717,0.00037,412.567,0.046,0.0915,0.0023,140.001,45.000,31577.51686,1.97896,413.021,34.309,45.072,45.000,0.00,0.06,-272.89,-272.92,-7,524,-948,19.7,3.2,-26.0,20.1,3.2,-25.7,0.48,2.04,-20.3,26.3
2016-12-20 00:41:00,0.0,1.97721,0.00048,412.552,0.041,0.0905,0.0013,139.999,45.000,31573.28103,1.97894,413.001,34.310,45.072,45.000,0.00,0.06,-272.88,-272.92,-6,523,-948,19.8,3.2,-26.1,20.1,3.2,-25.7,0.48,1.77,-20.3,26.3
2016-12-20 00:42:00,0.0,1.97685,0.00042,412.511,0.039,0.0921,0.0017,140.002,45.000,31575.31442,1.97870,412.969,34.313,45.072,45.000,0.00,0.06,-272.88,-272.92,-7,524,-948,19.7,3.2,-26.0,20.1,3.2,-25.7,0.48,2.10,-20.3,26.4
2016-12-20 00:43:00,0.0,1.97640,0.00069,412.455,0.062,0.0922,0.0016,139.998,45.000,31575.32043,1.97813,412.911,34.296,45.072,45.000,0.00,0.06,-272.87,-272.91,-6,523,-948,19.8,3.2,-25.9,20.1,3.2,-25.6,0.48,1.73,-20.3,26.3
2016-12-20 00:44:00,0.0,1.97685,0.00045,412.535,0.044,0.0920,0.0013,140.002,45.000,31578.00424,1.97871,412.993,34.252,45.072,45.001,0.00,0.06,-272.88,-272.92,-7,524,-948,19.8,3.2,-26.0,20.1,3.2,-25.6,0.48,2.11,-20.3,26.4
2016-12-20 00:45:00,0.0,1.97614,0.00060,412.405,0.073,0.0921,0.0018,139.999,45.000,31577.81075,1.97799,412.867,34.249,45.072,45.001,0.00,0.06,-272.88,-272.92,-6,523,-948,19.8,3.2,-26.0,20.1,3.2,-25.6,0.48,1.75,-20.3,26.3
2016-12-20 00:46:00,0.0,1.97641,0.00066,412.439,0.116,0.0923,0.0016,140.000,45.000,31577.54077,1.97814,412.892,34.252,45.072,45.001,0.00,0.06,-272.88,-272.92,-7,523,-948,19.7,3.2,-26.0,20.1,3.2,-25.6,0.48,2.07,-20.3,26.3
2016-12-20 00:47:00,0.0,1.97729,0.00058,412.586,0.050,0.0931,0.0018,140.001,45.000,31578.04913,1.97909,413.048,34.252,45.072,45.000,0.00,0.06,-272.88,-272.92,-6,523,-948,19.7,3.2,-25.9,20.1,3.3,-25.5,0.48,1.81,-20.3,26.3
2016-12-20 00:48:00,0.0,1.97629,0.00057,412.443,0.053,0.0930,0.0021,140.001,45.000,31577.50145,1.97813,412.905,34.258,45.072,45.000,0.00,0.06,-272.88,-272.92,-7,523,-948,19.7,3.2,-25.9,20.1,3.3,-25.5,0.48,1.98,-20.3,26.3
2016-12-20 00:49:00,0.0,1.97681,0.00053,412.510,0.094,0.0908,0.0019,139.999,45.000,31574.36468,1.97854,412.958,34.259,45.072,45.000,0.00,0.06,-272.89,-272.90,-6,523,-948,19.7,3.2,-26.1,20.1,3.2,-25.6,0.48,1.92,-20.3,26.3
2016-12-20 00:50:00,0.0,1.97685,0.00041,412.564,0.048,0.0917,0.0017,140.002,45.000,31575.55240,1.97865,413.021,34.260,45.072,45.000,0.00,0.06,-272.88,-272.92,-7,523,-948,19.7,3.2,-26.1,20.1,3.2,-25.7,0.48,1.87,-20.3,26.3
2016-12-20 00:51:00,0.0,1.97666,0.00056,412.560,0.055,0.0906,0.0018,140.003,45.000,31577.63240,1.97843,413.012,34.249,45.072,45.000,0.00,0.06,-272.89,-272.92,-6,523,-948,19.7,3.1,-26.2,20.1,3.2,-25.7,0.48,2.01,-20.3,26.3
2016-12-20 00:52:00,0.0,1.97625,0.00053,412.446,0.042,0.0891,0.0016,140.000,45.000,31578.14872,1.97802,412.890,34.248,45.072,45.000,0.00,0.06,-272.87,-272.93,-7,523,-948,19.7,3.1,-26.3,20.1,3.2,-25.9,0.48,1.79,-20.3,26.3
2016-12-20 00:53:00,0.0,1.97604,0.00057,412.437,0.050,0.0898,0.0018,140.002,45.000,31578.35751,1.97775,412.880,34.238,45.072,45.000,0.00,0.06,-272.88,-272.91,-6,523,-948,19.7,3.1,-26.2,20.1,3.2,-25.9,0.48,2.08,-20.2,26.3
2016-12-20 00:54:00,0.0,1.97672,0.00055,412.539,0.063,0.0908,0.0014,140.002,45.000,31577.20168,1.97846,412.987,34.227,45.072,45.000,0.00,0.06,-272.88,-272.93,-8,523,-948,19.7,3.2,-26.1,20.1,3.2,-25.8,0.48,1.74,-20.2,26.3
2016-12-20 00:55:00,0.0,1.97682,0.00045,412.557,0.050,0.0896,0.0013,140.001,45.000,31575.65480,1.97860,413.003,34.208,45.072,45.000,0.00,0.06,-272.89,-272.92,-6,523,-948,19.7,3.1,-26.2,20.1,3.2,-25.8,0.48,2.11,-20.2,26.3
2016-12-20 00:56:00,0.0,1.97682,0.00048,412.566,0.053,0.0891,0.0014,140.003,45.000,31576.00234,1.97853,413.008,34.184,45.072,45.000,0.00,0.06,-272.87,-272.91,-7,523,-948,19.7,3.1,-26.3,20.1,3.2,-25.9,0.48,1.73,-20.2,26.3
2016-12-20 00:57:00,0.0,1.97650,0.00038,412.532,0.037,0.0885,0.0022,139.998,45.000,31575.52936,1.97825,412.973,34.146,45.072,45.000,0.00,0.06,-272.88,-272.91,-6,524,-948,19.7,3.1,-26.3,20.1,3.1,-26.0,0.48,2.10,-20.2,26.3
2016-12-20 00:58:00,0.0,1.97664,0.00044,412.520,0.047,0.0892,0.0014,140.000,45.000,31574.04540,1.97837,412.964,34.125,45.072,45.000,0.00,0.06,-272.88,-272.92,-7,523,-948,19.7,3.1,-26.4,20.1,3.1,-26.0,0.48,1.76,-20.2,26.3
2016-12-20 00:59:00,0.0,1.97656,0.00044,412.484,0.054,0.0898,0.0019,140.002,45.000,31574.18765,1.97829,412.927,34.131,45.072,45.001,0.00,0.06,-272.88,-272.90,-6,524,-948,19.7,3.1,-26.3,20.1,3.1,-25.9,0.48,2.06,-20.2,26.3
2016-12-20 01:00:00,0.0,1.97567,0.00062,412.381,0.090,0.0893,0.0020,140.000,45.000,31577.05348,1.97744,412.826,34.121,45.072,45.000,0.00,0.06,-272.88,-272.92,-7,523,-948,19.7,3.1,-26.2,20.1,3.2,-25.9,0.48,1.82,-20.2,26.3
2016-12-20 01:01:00,0.0,1.97623,0.00050,412.447,0.072,0.0899,0.0015,139.999,45.000,31575.47038,1.97798,412.896,34.072,45.072,45.000,0.00,0.06,-272.89,-272.92,-6,524,-948,19.7,3.1,-26.2,20.1,3.2,-25.9,0.48,1.99,-20.2,26.3
2016-12-20 01:02:00,0.0,1.97530,0.00053,412.308,0.069,0.0918,0.0021,139.999,45.000,31576.19187,1.97708,412.766,34.039,45.072,45.000,0.00,0.06,-272.88,-272.90,-6,523,-948,19.7,3.2,-26.1,20.1,3.2,-25.8,0.48,1.89,-20.2,26.3
2016-12-20 01:03:00,0.0,1.97515,0.00046,412.247,0.036,0.0924,0.0016,140.000,45.000,31575.87094,1.97697,412.707,34.011,45.072,45.001,0.00,0.06,-272.87,-272.92,-7,524,-948,19.7,3.2,-25.9,20.1,3.2,-25.6,0.48,1.92,-20.2,26.3
2016-12-20 01:04:00,0.0,1.97506,0.00048,412.255,0.068,0.0947,0.0018,140.001,45.000,31576.46417,1.97693,412.728,34.009,45.073,45.001,0.00,0.06,-272.88,-272.91,-6,523,-948,19.7,3.3,-25.7,20.1,3.3,-25.4,0.48,1.97,-20.2,26.3
2016-12-20 01:05:00,0.0,1.97480,0.00094,412.207,0.138,0.0947,0.0017,140.001,45.000,31576.09968,1.97661,412.673,34.058,45.072,45.001,0.00,0.06,-272.88,-272.93,-7,524,-948,19.7,3.3,-25.7,20.1,3.3,-25.4,0.48,1.84,-20.2,26.3
2016-12-20 01:06:00,0.0,1.97479,0.00052,412.194,0.045,0.0949,0.0019,139.998,45.000,31576.18781,1.97668,412.669,34.064,45.072,45.000,0.00,0.06,-272.88,-272.92,-6,523,-948,19.7,3.3,-25.6,20.1,3.3,-25.3,0.48,2.04,-20.2,26.3
2016-12-20 01:07:00,0.0,1.97413,0.00057,412.081,0.075,0.0952,0.0017,139.999,45.000,31576.23317,1.97601,412.554,34.068,45.072,45.000,0.00,0.06,-272.88,-272.92,-7,524,-948,19.7,3.3,-25.7,20.1,3.3,-25.3,0.48,1.77,-20.2,26.3
2016-12-20 01:08:00,0.0,1.97343,0.00049,411.981,0.043,0.0974,0.0012,139.999,45.000,31577.34444,1.97532,412.464,34.064,45.072,45.000,0.00,0.06,-272.89,-272.91,-6,523,-948,19.7,3.3,-25.5,20.1,3.3,-25.3,0.48,2.09,-20.2,26.3
2016-12-20 01:09:00,0.0,1.97298,0.00048,411.924,0.061,0.0987,0.0014,140.001,45.000,31575.46381,1.97491,412.413,34.075,45.071,44.999,0.00,0.06,-272.87,-272.92,-7,524,-948,19.7,3.4,-25.3,20.1,3.4,-25.1,0.48,1.74,-20.2,26.3
2016-12-20 01:10:00,0.0,1.97307,0.00044,411.938,0.034,0.0990,0.0016,139.999,45.000,31575.17814,1.97500,412.430,34.085,45.071,44.999,0.00,0.06,-272.89,-272.91,-5,523,-948,19.7,3.4,-25.2,20.1,3.4,-24.9,0.48,2.12,-20.2,26.3
2016-12-20 01:11:00,0.0,1.97369,0.00039,411.952,0.052,0.1004,0.0019,140.000,45.000,31573.87491,1.97561,412.448,34.072,45.071,44.999,0.00,0.06,-272.89,-272.92,-7,524,-948,19.7,3.5,-25.1,20.1,3.5,-24.9,0.48,1.74,-20.2,26.3
2016-12-20 01:12:00,0.0,1.97334,0.00051,411.958,0.094,0.1002,0.0018,140.001,45.000,31574.15263,1.97531,412.456,34.065,45.071,44.999,0.00,0.06,-272.88,-272.92,-5,523,-948,19.7,3.5,-25.1,20.1,3.5,-24.9,0.49,2.09,-20.2,26.3
2016-12-20 01:13:00,0.0,1.97294,0.00055,411.885,0.042,0.0994,0.0017,139.998,45.000,31574.24437,1.97493,412.381,34.065,45.071,44.999,0.00,0.06,-272.88,-272.90,-7,523,-948,19.7,3.5,-25.1,20.1,3.5,-24.9,0.48,1.78,-20.2,26.2
2016-12-20 01:14:00,0.0,1.97281,0.00046,411.852,0.064,0.0994,0.0015,140.001,45.000,31573.51293,1.97469,412.343,34.065,45.072,45.000,0.00,0.06,-272.88,-272.92,-5,523,-948,19.7,3.5,-25.2,20.1,3.5,-24.9,0.48,2.03,-20.2,26.2
2016-12-20 01:15:00,0.0,1.97329,0.00047,411.948,0.068,0.1004,0.0014,140.000,45.000,31573.37131,1.97527,412.448,34.069,45.072,45.000,0.00,0.06,-272.88,-272.91,-7,523,-948,19.7,3.5,-25.1,20.1,3.5,-24.8,0.48,1.86,-20.2,26.2
2016-12-20 01:16:00,0.0,1.97218,0.00043,411.765,0.055,0.1004,0.0018,139.998,45.000,31572.87958,1.97415,412.263,34.077,45.072,45.000,0.00,0.06,-272.88,-272.91,-5,524,-948,19.7,3.5,-25.1,20.1,3.5,-24.8,0.49,1.94,-20.2,26.2
2016-12-20 01:17:00,0.0,1.97196,0.00056,411.728,0.051,0.1011,0.0020,139.999,45.000,31574.41497,1.97393,412.232,34.074,45.072,45.000,0.00,0.06,-272.88,-272.91,-7,523,-948,19.7,3.5,-25.0,20.1,3.5,-24.7,0.48,1.96,-20.2,26.2
2016-12-20 01:18:00,0.0,1.97217,0.00036,411.730,0.057,0.1029,0.0020,140.001,45.000,31573.61190,1.97417,412.239,34.064,45.072,45.000,0.00,0.06,-272.87,-272.93,-5,523,-948,19.7,3.6,-24.8,20.1,3.5,-24.6,0.48,1.83,-20.2,26.2
2016-12-20 01:19:00,0.0,1.97310,0.00046,411.900,0.055,0.1033,0.0017,140.001,45.000,31573.11485,1.97505,412.409,34.063,45.072,45.000,0.00,0.06,-272.88,-272.92,-7,523,-948,19.7,3.6,-24.8,20.0,3.6,-24.6,0.48,2.07,-20.2,26.2
2016-12-20 01:20:00,0.0,1.97210,0.00075,411.744,0.134,0.1010,0.0022,140.000,45.000,31572.27437,1.97415,412.250,34.063,45.072,45.000,0.00,0.06,-272.87,-272.91,-5,523,-948,19.6,3.5,-25.0,20.1,3.5,-24.6,0.48,1.75,-20.2,26.2
2016-12-20 01:21:00,0.0,1.97177,0.00067,411.694,0.094,0.1010,0.0020,140.000,45.000,31574.19086,1.97367,412.190,34.064,45.072,45.000,0.00,0.06,-272.89,-272.92,-7,523,-948,19.7,3.5,-25.0,20.0,3.5,-24.8,0.48,2.11,-20.2,26.2
2016-12-20 01:22:00,0.0,1.97205,0.00048,411.696,0.050,0.1027,0.0016,140.001,45.000,31572.62203,1.97410,412.207,34.083,45.072,45.000,0.00,0.06,-272.88,-272.92,-6,523,-948,19.7,3.6,-24.9,20.1,3.5,-24.6,0.48,1.74,-20.2,26.3
2016-12-20 01:23:00,0.0,1.97245,0.00070,411.753,0.079,0.1033,0.0019,140.000,45.000,31573.33668,1.97441,412.263,34.123,45.072,45.000,0.00,0.06,-272.88,-272.91,-7,523,-948,19.7,3.6,-24.7,20.1,3.6,-24.5,0.48,2.08,-20.2,26.2
2016-12-20 01:24:00,0.0,1.97200,0.00065,411.713,0.096,0.1028,0.0016,139.997,45.000,31573.07251,1.97403,412.226,34.128,45.072,45.000,0.00,0.06,-272.88,-272.91,-5,523,-948,19.7,3.6,-24.8,20.1,3.6,-24.5,0.48,1.80,-20.2,26.3
2016-12-20 01:25:00,0.0,1.97223,0.00053,411.730,0.041,0.1021,0.0019,140.001,45.000,31573.47496,1.97422,412.235,34.135,45.072,45.000,0.00,0.06,-272.88,-272.92,-7,523,-948,19.6,3.5,-24.9,20.1,3.6,-24.6,0.49,1.99,-20.2,26.3
2016-12-20 01:26:00,0.0,1.97222,0.00055,411.728,0.040,0.1034,0.0016,139.997,45.000,31573.44634,1.97425,412.239,34.146,45.072,45.000,0.00,0.06,-272.88,-272.91,-6,523,-948,19.7,3.6,-24.8,20.1,3.6,-24.6,0.48,1.91,-20.2,26.3
2016-12-20 01:27:00,0.0,1.97183,0.00032,411.690,0.040,0.1024,0.0015,139.999,45.000,31577.42622,1.97380,412.198,34.175,45.072,45.000,0.00,0.06,-272.88,-272.92,-7,523,-948,19.6,3.6,-24.8,20.1,3.6,-24.6,0.48,1.88,-20.2,26.2
2016-12-20 01:28:00,0.0,1.97203,0.00062,411.737,0.090,0.1037,0.0020,140.000,45.000,31577.37895,1.97402,412.249,34.187,45.072,45.000,0.00,0.06,-272.89,-272.92,-6,523,-948,19.7,3.6,-24.8,20.0,3.6,-24.6,0.48,2.02,-20.2,26.3
2016-12-20 01:29:00,0.0,1.97252,0.00080,411.789,0.142,0.1020,0.0020,140.000,45.000,31574.63673,1.97455,412.300,34.189,45.072,45.000,0.00,0.06,-272.88,-272.91,-7,523,-948,19.7,3.5,-24.9,20.1,3.6,-24.6,0.48,1.78,-20.2,26.2
2016-12-20 01:30:00,0.0,1.97178,0.00036,411.626,0.041,0.1026,0.0010,140.001,45.000,31576.09630,1.97376,412.134,34.191,45.072,45.000,0.00,0.06,-272.87,-272.90,-6,523,-948,19.7,3.5,-24.9,20.1,3.6,-24.6,0.48,2.10,-20.2,26.2
2016-12-20 01:31:00,0.0,1.97203,0.00046,411.654,0.070,0.1040,0.0023,139.999,45.000,31575.97372,1.97401,412.165,34.188,45.072,45.000,0.00,0.06,-272.88,-272.92,-7,523,-948,19.7,3.6,-24.8,20.0,3.6,-24.6,0.48,1.73,-20.2,26.2
2016-12-20 01:32:00,0.0,1.97194,0.00075,411.699,0.143,0.1039,0.0017,140.001,45.000,31578.50339,1.97401,412.218,34.189,45.072,45.000,0.00,0.06,-272.88,-272.92,-6,523,-948,19.7,3.6,-24.7,20.1,3.6,-24.5,0.48,2.10,-20.2,26.2
2016-12-20 01:33:00,0.0,1.97204,0.00066,411.712,0.122,0.1035,0.0018,140.000,45.000,31577.83769,1.97400,412.219,34.189,45.072,45.000,0.00,0.06,-272.87,-272.91,-7,523,-948,19.7,3.6,-24.8,20.1,3.6,-24.4,0.48,1.78,-20.2,26.2
2016-12-20 01:34:00,0.0,1.97329,0.00054,411.925,0.044,0.1027,0.0018,140.000,45.000,31578.22937,1.97531,412.437,34.193,45.072,45.000,0.00,0.06,-272.88,-272.92,-6,523,-948,19.7,3.6,-24.8,20.1,3.6,-24.6,0.48,2.03,-20.2,26.2
2016-12-20 01:35:00,0.0,1.97226,0.00042,411.771,0.051,0.1017,0.0018,139.999,45.000,31576.97675,1.97423,412.276,34.193,45.072,45.000,0.00,0.06,-272.89,-272.92,-6,523,-948,19.6,3.5,-25.0,20.1,3.5,-24.6,0.48,1.87,-20.2,26.3
2016-12-20 01:36:00,0.0,1.97221,0.00047,411.734,0.076,0.1007,0.0022,139.998,45.000,31578.42057,1.97414,412.231,34.223,45.072,45.000,0.00,0.06,-272.88,-272.91,-6,523,-948,19.7,3.5,-25.1,20.1,3.5,-24.7,0.48,1.91,-20.2,26.2
2016-12-20 01:37:00,0.0,1.97293,0.00066,411.879,0.110,0.1024,0.0021,140.001,45.000,31578.80280,1.97494,412.390,34.238,45.072,45.000,0.00,0.06,-272.88,-272.91,-6,523,-948,19.6,3.5,-24.9,20.0,3.5,-24.7,0.48,2.00,-20.2,26.2
2016-12-20 01:38:00,0.0,1.97094,0.00071,411.518,0.084,0.1019,0.0012,140.003,45.000,31580.82211,1.97298,412.026,34.250,45.072,45.000,0.00,0.06,-272.88,-272.92,-6,523,-948,19.6,3.6,-24.9,20.1,3.6,-24.6,0.48,1.79,-20.2,26.2
2016-12-20 01:39:00,0.0,1.97231,0.00069,411.738,0.093,0.1029,0.0019,139.999,45.000,31579.91348,1.97425,412.242,34.261,45.072,45.000,0.00,0.06,-272.89,-272.91,-6,523,-948,19.6,3.6,-24.8,20.1,3.6,-24.5,0.48,2.10,-20.2,26.3
2016-12-20 01:40:00,0.0,1.97255,0.00036,411.826,0.076,0.1054,0.0014,140.001,45.000,31582.07535,1.97460,412.352,34.269,45.072,45.000,0.00,0.06,-272.88,-272.91,-6,523,-948,19.7,3.6,-24.7,20.1,3.6,-24.4,0.48,1.74,-20.2,26.3
2016-12-20 01:41:00,0.0,1.97194,0.00040,411.723,0.038,0.1032,0.0016,140.000,45.000,31583.98474,1.97400,412.237,34.283,45.072,45.000,0.00,0.06,-272.89,-272.92,-6,523,-948,19.7,3.6,-24.8,20.1,3.6,-24.4,0.48,2.10,-20.2,26.2
2016-12-20 01:42:00,0.0,1.97116,0.00076,411.559,0.105,0.1026,0.0016,139.999,45.000,31582.17929,1.97311,412.065,34.275,45.072,45.000,0.00,0.06,-272.88,-272.91,-6,523,-948,19.7,3.6,-24.9,20.1,3.6,-24.6,0.48,1.78,-20.2,26.3
2016-12-20 01:43:00,0.0,1.97174,0.00044,411.683,0.077,0.1049,0.0014,139.998,45.000,31580.71066,1.97380,412.203,34.296,45.072,45.000,0.00,0.06,-272.87,-272.92,-6,523,-948,19.7,3.6,-24.7,20.1,3.6,-24.4,0.48,2.02,-20.2,26.3
2016-12-20 01:44:00,0.0,1.97102,0.00029,411.519,0.055,0.1054,0.0022,140.002,45.000,31581.94374,1.97307,412.043,34.309,45.072,45.000,0.00,0.06,-272.88,-272.91,-6,523,-948,19.7,3.7,-24.5,20.1,3.6,-24.3,0.48,1.90,-20.2,26.3
2016-12-20 01:45:00,0.0,1.97151,0.00043,411.614,0.043,0.1054,0.0019,140.000,45.000,31581.82477,1.97353,412.134,34.312,45.072,45.000,0.00,0.06,-272.88,-272.92,-6,523,-948,19.7,3.6,-24.6,20.1,3.7,-24.3,0.48,1.88,-20.2,26.3